TITAN 34D TRANSTAGE DEB, 22668

Orbit data source: Space-Track

TITAN 34D TRANSTAGE DEB, 22668 is space debris in HEO originally from a launch on Fri, 02 Sep 1988 UTC launched from the Air Force Eastern Test Range (AFETR). Debris objects in space refer to the collection of defunct objects orbiting the Earth. Examples of debris include non-operational satellites, rocket bodies, and fragments generated from explosions, collisions, or faulty payload assembly.

Loading next visibility...
Identifier
22668, 1988-077D
Orbit
HEO
Country
Flag of USUS
Related business
Manufacturer
Unknown
Mission
Spacecraft
Bus & Motor
Unknown
Mass
Unknown
Launch date (UTC)
1988-09-02 (38 years ago)
Launch vehicle
Unknown
Launch site
Air Force Eastern Test Range (AFETR)
Object type
Payload
Rocket body
Debris
Shape & HBR
Unknown shape, 2.8 m
Radar Cross Section
Large (>1 m²)

Expand to show TLE details & history
Last TLE update: 2 days ago

TLE from 2 days ago
0 TITAN 34D TRANSTAGE DEB
1 22668U 88077D   26171.21878686  .00000265  00000-0  77030-3 0  9990
2 22668  26.4282 174.5560 7319595  46.9430 354.6165  2.16328059 55245
Epoch: 2026-06-20T05:15Z
TLE epoch observation values (Epoch: 2026-06-20T05:15:03.184Z)
Latitude
0.00004°
Longitude
-172.73676°
Altitude
1,442.905 km
Speed
9.281 km/s
True Right ascension
11h 37m 51s
True Declination
0° 00' 00"
Sunlit
Object was in daylight at epoch
Visualization orbit readout
Latitude
Unknown
Longitude
Unknown
Altitude
Unknown
Speed
Unknown
Apparent Right ascension
Unknown
Apparent Declination
Unknown
Sunlit
N/A
Visualization observer readout
Local Sidereal Time
23:08:41
Azimuth
Unknown
Elevation
Unknown
Doppler factor
Unknown
Orbital elements
Apogee altitude
37,367.148 km
Perigee altitude
391.945 km
Semi-major axis
25,257.684 km
Eccentricity
0.73196
Inclination
26.4282°
RAAN
174.556°
Arg. of periapsis
46.943°
True anomaly
313.64515°
Mean anomaly
354.6165°
Eccentric anomaly
340.87916°
Mean motion
0.5407 °/min
Orbital period
665.81 mins
BSTAR
0.0007703
Loading maneuver chart data...
Computing Atmospheric mass density...

Documentation

Showing up to 5 results
|